Погода в Ряймяле

Россия / Республика Карелия     61°21′11″N   31°58′10″E
темп.,
°C
ветер,
м/с
пор.,
м/с
влажн.,
%
обл.,
%
осадки,
мм/ч
давл.,
гПа
погр.,
м
9 марта, вт
вт900:00−19св479520 0.0 1018276
03:00−21ссв359932 0.0 1019196
06:00−23св459911 0.0 1021196
09:00−23всв469829 0.0 1023241
12:00−19св349032 0.0 1024335
15:00−16св348116 0.0 1025484
18:00−16св34860 0.0 1026295
21:00−19всв45940 0.0 1028210
10 марта, ср
ср1000:00−20в34950 0.0 1029160
03:00−21всв22930 0.0 1030139
06:00−21св22920 0.0 1030120
09:00−20св117424 0.0 1031130
12:00−14сз227354 0.0 1031267
15:00−12зсз237261 0.0 1031273
18:00−12сз23749 0.0 1031127
21:00−14св11765 0.0 103168
11 марта, чт
чт1100:00−14юв22810 0.0 1031153
03:00−13ююв34880 0.0 1030244
06:00−13ююв47851 0.0 1029236
09:00−13ююв69850 0.0 1028388
12:00−10ююв710750 0.0 1026507
15:00−8ю7117317 0.0 1024660
18:00−7ююз71091100 0.1 1021564
21:00−7ююз71089100 0.2 1020571
12 марта, пт
пт1200:00−7ююз61090100 0.1 1019544
03:00−7ю71192100 0.1 1017484
06:00−7ю81292100 0.0 1015509
09:00−8ю8148898 0.1 1014563
12:00−6ю9158377 0.0 1012671
15:00−4ю10157960 0.0 1010898
18:00−3ю8167925 0.0 1008801
21:00−3ю9177850 0.0 1008862
13 марта, сб
сб1300:00−4ю91586100 0.0 1007810
03:00−5ю91490100 0.2 1006774
06:00−5ююв91392100 0.6 1005718
09:00−4ю81292100 1.0 1004685
12:00−4ю71195100 0.6 1004574
15:00−1ю71194100 1.6 1003463
18:000ю71395100 0.3 1002521
21:000ю91698100 0.9 999570